Find Starlink 31324

NORAD ID: 58976 Int'l Des: 2024-031 Owner: SPXS Country: US Constellation: starlink operational
LEOCIRCULAR

当前视图

正在加载3D地球...

About Starlink 31324

Starlink 31324 (NORAD 58976) is a starlink constellation satellite (v2 mini) launched Feb 15, 2024 by SPXS of US. It operates in LEO, CIRCULAR orbit with a mass of 730.00 kg.

关于 Starlink 31324

正在加载描述...

即将过境

Passes for default location (London). Set your location on the main map for personalized predictions.

高度历史

Loading altitude history...

两行轨道根数

1 58976U 24031M 26170.32859233 -.00000364 00000-0 -16657-6 0 9992
2 58976 53.1606 184.6554 0001295 91.4600 268.6549 15.30191911132072
Epoch: Jun 19, 2026 • Age: 15 hours

当前状态

高度 494.1 km
速度 7.62 km/s
星下点 -51.92°S, 178.67°E
发射日期 Feb 15, 2024
运行时间 2.3 years
类型 internet

技术详情

分类 Payload
质量 730.00 kg
干质量 700.00 kg
总质量 730.00 kg
长度 0.30 m
直径 4.10 m
跨度 29.00 m
形状 Box + pan
制造商 SPXS
平台类型 Starlink V2M
阶段状态 In Orbit
所有者/国家 SPXS/US

Most Searched